| time (UTC) | temp F | wind direction | speed MPH | gust MPH | rain 1hr in | rain 24hr in | rain mn in | humidity % | barometer mb |
| 20260905193253 | 49 | 158 | 3.0 | 9.0 | 0.01 | 0.02 | 0.02 | 76 | 1022.8 |
| 20260905192742 | 50 | 68 | 3.0 | 9.0 | 0.01 | 0.02 | 0.02 | 77 | 1022.7 |
| 20260905192232 | 50 | 45 | 2.0 | 6.0 | 0.01 | 0.02 | 0.02 | 77 | 1022.7 |
| 20260905191722 | 50 | 180 | 2.0 | 6.0 | 0.01 | 0.02 | 0.02 | 77 | 1022.8 |
| 20260905191212 | 48 | 158 | 2.0 | 8.0 | 0.01 | 0.02 | 0.02 | 77 | 1022.7 |
| 20260905190702 | 49 | 203 | 4.0 | 9.0 | 0.00 | 0.01 | 0.01 | 75 | 1022.6 |
| 20260905185641 | 49 | 180 | 4.0 | 14.0 | 0.00 | 0.01 | 0.01 | 73 | 1022.4 |
| 20260905185131 | 50 | 90 | 4.0 | 14.0 | 0.00 | 0.01 | 0.01 | 73 | 1022.2 |
| 20260905184621 | 51 | 90 | 4.0 | 9.0 | 0.00 | 0.01 | 0.01 | 72 | 1022.3 |
| 20260905184111 | 50 | 135 | 3.0 | 9.0 | 0.00 | 0.01 | 0.01 | 72 | 1022.1 |
| 20260905183601 | 50 | 225 | 2.0 | 16.0 | 0.00 | 0.01 | 0.01 | 74 | 1022.1 |
| 20260905183051 | 52 | 113 | 2.0 | 16.0 | 0.01 | 0.01 | 0.01 | 71 | 1021.9 |
| 20260905182540 | 53 | 135 | 4.0 | 9.0 | 0.01 | 0.01 | 0.01 | 64 | 1021.9 |
| 20260905182030 | 52 | 135 | 3.0 | 9.0 | 0.01 | 0.01 | 0.01 | 69 | 1021.7 |
| 20260905181521 | 50 | 158 | 2.0 | 8.0 | 0.01 | 0.01 | 0.01 | 75 | 1021.7 |
| 20260905181010 | 50 | 68 | 2.0 | 8.0 | 0.01 | 0.01 | 0.01 | 75 | 1021.7 |
| 20260905180459 | 52 | 158 | 4.0 | 9.0 | 0.01 | 0.01 | 0.01 | 71 | 1021.6 |
| 20260905175949 | 52 | 203 | 4.0 | 9.0 | 0.01 | 0.01 | 0.01 | 70 | 1021.7 |
| 20260905175441 | 51 | 90 | 2.0 | 13.0 | 0.01 | 0.01 | 0.01 | 72 | 1021.5 |
| 20260905174930 | 52 | 203 | 2.0 | 13.0 | 0.01 | 0.01 | 0.01 | 73 | 1021.5 |
| 20260905174419 | 50 | 23 | 1.0 | 7.0 | 0.01 | 0.01 | 0.01 | 75 | 1021.7 |
| 20260905173359 | 49 | 90 | 2.0 | 11.0 | 0.00 | 0.00 | 0.00 | 74 | 1021.6 |
| 20260905172849 | 51 | 68 | 4.0 | 8.0 | 0.00 | 0.00 | 0.00 | 68 | 1021.7 |
| 20260905172340 | 52 | 68 | 4.0 | 7.0 | 0.00 | 0.00 | 0.00 | 64 | 1021.5 |
| 20260905171829 | 55 | 23 | 2.0 | 7.0 | 0.00 | 0.00 | 0.00 | 59 | 1021.2 |
| 20260905171318 | 54 | 90 | 2.0 | 8.0 | 0.00 | 0.00 | 0.00 | 60 | 1021.3 |
| 20260905170808 | 54 | 90 | 4.0 | 8.0 | 0.00 | 0.00 | 0.00 | 58 | 1021.4 |
| 20260905165238 | 53 | 90 | 3.0 | 9.0 | 0.00 | 0.00 | 0.00 | 60 | 1021.3 |
| 20260905164728 | 54 | 203 | 2.0 | 7.0 | 0.00 | 0.00 | 0.00 | 60 | 1021.2 |
| 20260905164228 | 54 | 45 | 4.0 | 9.0 | 0.00 | 0.00 | 0.00 | 59 | 1021.1 |
| 20260905163707 | 54 | 90 | 4.0 | 9.0 | 0.00 | 0.00 | 0.00 | 62 | 1021.2 |
| 20260905163159 | 53 | 23 | 2.0 | 8.0 | 0.00 | 0.00 | 0.00 | 62 | 1021.1 |
| 20260905162647 | 54 | 248 | 4.0 | 8.0 | 0.00 | 0.00 | 0.00 | 63 | 1021.1 |
| 20260905162137 | 53 | 135 | 2.0 | 7.0 | 0.00 | 0.00 | 0.00 | 61 | 1021.2 |
| 20260905161626 | 53 | 90 | 3.0 | 11.0 | 0.00 | 0.00 | 0.00 | 63 | 1021.2 |
| 20260905161116 | 52 | 225 | 4.0 | 13.0 | 0.00 | 0.00 | 0.00 | 65 | 1021.2 |
| 20260905160100 | 50 | 203 | 3.0 | 7.0 | 0.00 | 0.00 | 0.00 | 71 | 1021.2 |
| 20260905155037 | 53 | 180 | 2.0 | 7.0 | 0.00 | 0.00 | 0.00 | 65 | 1021.4 |
| 20260905154526 | 52 | 0 | 2.0 | 7.0 | 0.00 | 0.00 | 0.00 | 68 | 1021.2 |
| 20260905154015 | 51 | 23 | 1.0 | 6.0 | 0.00 | 0.00 | 0.00 | 74 | 1021.2 |
| 20260905152955 | 51 | 158 | 2.0 | 4.0 | 0.00 | 0.00 | 0.00 | 75 | 1021.2 |
| 20260905152446 | 50 | 23 | 2.0 | 4.0 | 0.00 | 0.00 | 0.00 | 78 | 1021.2 |
| 20260905151935 | 49 | 68 | 1.0 | 4.0 | 0.00 | 0.00 | 0.00 | 80 | 1021.3 |
| 20260905151426 | 47 | 90 | 2.0 | 6.0 | 0.00 | 0.00 | 0.00 | 79 | 1021.2 |
| 20260905150404 | 50 | 23 | 4.0 | 9.0 | 0.00 | 0.00 | 0.00 | 72 | 1021.4 |
| 20260905145854 | 52 | 180 | 3.0 | 9.0 | 0.00 | 0.00 | 0.00 | 65 | 1021.0 |
| 20260905145344 | 52 | 45 | 2.0 | 4.0 | 0.00 | 0.00 | 0.00 | 71 | 1021.0 |
| 20260905144834 | 51 | 68 | 2.0 | 7.0 | 0.00 | 0.00 | 0.00 | 75 | 1020.9 |
| 20260905144325 | 50 | 180 | 2.0 | 8.0 | 0.00 | 0.00 | 0.00 | 75 | 1020.8 |
| 20260905143814 | 50 | 135 | 2.0 | 8.0 | 0.00 | 0.00 | 0.00 | 74 | 1020.9 |
| 20260905143304 | 52 | 68 | 3.0 | 8.0 | 0.00 | 0.00 | 0.00 | 66 | 1020.9 |
| 20260905142754 | 52 | 225 | 2.0 | 7.0 | 0.00 | 0.00 | 0.00 | 66 | 1020.6 |
| 20260905142244 | 52 | 113 | 3.0 | 8.0 | 0.00 | 0.00 | 0.00 | 66 | 1020.6 |
| 20260905141734 | 50 | 113 | 2.0 | 9.0 | 0.00 | 0.00 | 0.00 | 70 | 1020.7 |
| 20260905141223 | 51 | 270 | 3.0 | 9.0 | 0.00 | 0.00 | 0.00 | 70 | 1020.6 |
| 20260905140713 | 53 | 180 | 3.0 | 6.0 | 0.00 | 0.00 | 0.00 | 68 | 1020.7 |
| 20260905140203 | 52 | 45 | 3.0 | 8.0 | 0.00 | 0.00 | 0.00 | 69 | 1020.7 |
| 20260905135653 | 52 | 248 | 2.0 | 8.0 | 0.00 | 0.00 | 0.00 | 70 | 1020.8 |
| 20260905135143 | 52 | 113 | 2.0 | 7.0 | 0.00 | 0.00 | 0.00 | 69 | 1020.6 |
| 20260905134632 | 51 | 23 | 3.0 | 7.0 | 0.00 | 0.00 | 0.00 | 72 | 1020.4 |
| 20260905134122 | 49 | 90 | 2.0 | 8.0 | 0.00 | 0.00 | 0.00 | 76 | 1020.6 |
| 20260905133102 | 50 | 68 | 2.0 | 8.0 | 0.00 | 0.00 | 0.00 | 75 | 1020.5 |
| 20260905132552 | 49 | 45 | 4.0 | 8.0 | 0.00 | 0.00 | 0.00 | 76 | 1020.3 |
| 20260905132042 | 49 | 203 | 2.0 | 8.0 | 0.00 | 0.00 | 0.00 | 75 | 1020.5 |
| 20260905131532 | 50 | 45 | 2.0 | 7.0 | 0.00 | 0.00 | 0.00 | 74 | 1020.2 |
| 20260905130512 | 49 | 68 | 3.0 | 11.0 | 0.00 | 0.00 | 0.00 | 77 | 1020.3 |
| 20260905130005 | 49 | 45 | 3.0 | 7.0 | 0.00 | 0.00 | 0.00 | 77 | 1020.2 |
| 20260905125451 | 50 | 23 | 4.0 | 8.0 | 0.00 | 0.00 | 0.00 | 75 | 1020.0 |
| 20260905123921 | 49 | 23 | 3.0 | 7.0 | 0.00 | 0.00 | 0.00 | 77 | 1020.0 |
| 20260905123411 | 48 | 68 | 2.0 | 8.0 | 0.00 | 0.00 | 0.00 | 79 | 1020.0 |
| 20260905122901 | 47 | 0 | 2.0 | 8.0 | 0.00 | 0.00 | 0.00 | 79 | 1019.9 |
| 20260905121330 | 47 | 338 | 2.0 | 8.0 | 0.00 | 0.00 | 0.00 | 80 | 1019.7 |
| 20260905120819 | 47 | 90 | 2.0 | 8.0 | 0.00 | 0.00 | 0.00 | 81 | 1019.7 |
| 20260905120310 | 46 | 23 | 2.0 | 7.0 | 0.00 | 0.00 | 0.00 | 81 | 1019.3 |
| 20260905115800 | 46 | 45 | 3.0 | 8.0 | 0.00 | 0.00 | 0.00 | 82 | 1019.5 |
| 20260905114740 | 45 | 248 | 2.0 | 6.0 | 0.00 | 0.00 | 0.00 | 83 | 1019.2 |
| 20260905114229 | 45 | 23 | 2.0 | 6.0 | 0.00 | 0.00 | 0.00 | 84 | 1019.3 |
| 20260905113209 | 44 | 45 | 2.0 | 7.0 | 0.00 | 0.00 | 0.00 | 87 | 1019.0 |
| 20260905112713 | 43 | 0 | 2.0 | 7.0 | 0.00 | 0.00 | 0.00 | 88 | 1019.0 |
| 20260905112149 | 42 | 68 | 1.0 | 6.0 | 0.00 | 0.00 | 0.00 | 90 | 1018.8 |
| 20260905111639 | 42 | 248 | 2.0 | 6.0 | 0.00 | 0.00 | 0.00 | 90 | 1018.7 |
| 20260905111128 | 42 | 90 | 2.0 | 6.0 | 0.00 | 0.00 | 0.00 | 90 | 1018.6 |
| 20260905110619 | 42 | 113 | 1.0 | 4.0 | 0.00 | 0.00 | 0.00 | 91 | 1018.8 |
| 20260905110108 | 41 | 158 | 3.0 | 6.0 | 0.00 | 0.00 | 0.00 | 92 | 1018.6 |
| 20260905105558 | 41 | 68 | 2.0 | 6.0 | 0.00 | 0.00 | 0.00 | 92 | 1018.5 |
| 20260905105048 | 41 | 45 | 0.0 | 4.0 | 0.00 | 0.00 | 0.00 | 92 | 1018.6 |
| 20260905104542 | 41 | 0 | 2.0 | 6.0 | 0.00 | 0.00 | 0.00 | 92 | 1018.6 |
| 20260905104028 | 40 | 23 | 2.0 | 6.0 | 0.00 | 0.00 | 0.00 | 92 | 1018.5 |
| 20260905103517 | 40 | 203 | 2.0 | 6.0 | 0.00 | 0.00 | 0.00 | 92 | 1018.3 |
| 20260905103008 | 40 | 45 | 2.0 | 6.0 | 0.00 | 0.00 | 0.00 | 92 | 1018.2 |
| 20260905101947 | 41 | 0 | 2.0 | 6.0 | 0.00 | 0.00 | 0.00 | 92 | 1018.2 |
| 20260905100926 | 41 | 90 | 2.0 | 6.0 | 0.00 | 0.00 | 0.00 | 91 | 1018.1 |
| 20260905100416 | 41 | 45 | 2.0 | 4.0 | 0.00 | 0.00 | 0.00 | 92 | 1018.2 |
| 20260905095907 | 41 | 23 | 2.0 | 4.0 | 0.00 | 0.00 | 0.00 | 92 | 1017.9 |
| 20260905095357 | 41 | 293 | 1.0 | 4.0 | 0.00 | 0.00 | 0.00 | 92 | 1017.7 |
| 20260905094846 | 41 | 90 | 1.0 | 4.0 | 0.00 | 0.00 | 0.00 | 92 | 1017.9 |
| 20260905094336 | 41 | 68 | 2.0 | 4.0 | 0.00 | 0.00 | 0.00 | 92 | 1017.5 |
| 20260905093826 | 41 | 45 | 2.0 | 4.0 | 0.00 | 0.00 | 0.00 | 92 | 1017.7 |
| 20260905093316 | 41 | 45 | 2.0 | 4.0 | 0.00 | 0.00 | 0.00 | 91 | 1017.4 |
| 20260905092806 | 41 | 23 | 2.0 | 6.0 | 0.00 | 0.00 | 0.00 | 91 | 1017.5 |
| 20260905092255 | 41 | 45 | 2.0 | 6.0 | 0.00 | 0.00 | 0.00 | 91 | 1017.3 |
| 20260905091748 | 41 | 113 | 2.0 | 4.0 | 0.00 | 0.00 | 0.00 | 91 | 1017.2 |
| 20260905091235 | 41 | 113 | 2.0 | 7.0 | 0.00 | 0.00 | 0.00 | 91 | 1017.3 |
| 20260905090726 | 41 | 45 | 3.0 | 7.0 | 0.00 | 0.00 | 0.00 | 91 | 1017.2 |
| 20260905090214 | 41 | 315 | 3.0 | 6.0 | 0.00 | 0.00 | 0.00 | 91 | 1017.1 |
| 20260905085705 | 41 | 203 | 1.0 | 6.0 | 0.00 | 0.00 | 0.00 | 91 | 1017.1 |
| 20260905085154 | 41 | 23 | 1.0 | 6.0 | 0.00 | 0.00 | 0.00 | 91 | 1016.8 |
| 20260905084644 | 41 | 338 | 2.0 | 4.0 | 0.00 | 0.00 | 0.00 | 91 | 1016.9 |
| 20260905084136 | 41 | 293 | 2.0 | 4.0 | 0.00 | 0.00 | 0.00 | 91 | 1016.9 |
| 20260905083114 | 41 | 135 | 3.0 | 6.0 | 0.00 | 0.00 | 0.00 | 91 | 1016.7 |
| 20260905082604 | 41 | 45 | 2.0 | 4.0 | 0.00 | 0.00 | 0.00 | 91 | 1016.8 |
| 20260905082053 | 41 | 23 | 2.0 | 4.0 | 0.00 | 0.00 | 0.00 | 91 | 1016.6 |
| 20260905081544 | 41 | 45 | 1.0 | 4.0 | 0.00 | 0.00 | 0.00 | 91 | 1016.7 |
| 20260905081035 | 41 | 23 | 2.0 | 4.0 | 0.00 | 0.00 | 0.00 | 90 | 1016.7 |
| 20260905080523 | 42 | 23 | 2.0 | 6.0 | 0.00 | 0.00 | 0.00 | 90 | 1016.6 |
| 20260905080013 | 42 | 338 | 1.0 | 6.0 | 0.00 | 0.00 | 0.00 | 90 | 1016.4 |
| 20260905075503 | 42 | 45 | 2.0 | 6.0 | 0.00 | 0.00 | 0.00 | 90 | 1016.6 |
| 20260905074952 | 42 | 68 | 1.0 | 6.0 | 0.00 | 0.00 | 0.00 | 90 | 1016.4 |
| 20260905074443 | 42 | 45 | 2.0 | 6.0 | 0.00 | 0.00 | 0.00 | 90 | 1016.4 |
| 20260905073933 | 42 | 0 | 2.0 | 6.0 | 0.00 | 0.00 | 0.00 | 90 | 1016.3 |
| 20260905073424 | 42 | 0 | 2.0 | 7.0 | 0.00 | 0.00 | 0.00 | 89 | 1016.3 |
| 20260905072912 | 42 | 0 | 2.0 | 7.0 | 0.00 | 0.00 | 0.00 | 89 | 1016.3 |
| 20260905071852 | 42 | 45 | 3.0 | 6.0 | 0.00 | 0.00 | 0.00 | 89 | 1016.2 |
| 20260905070832 | 42 | 23 | 2.0 | 4.0 | 0.00 | 0.00 | 0.00 | 88 | 1015.9 |
| 20260905070321 | 43 | 45 | 2.0 | 6.0 | 0.00 | 0.00 | 0.00 | 88 | 1016.1 |
| 20260905065812 | 43 | 293 | 2.0 | 6.0 | 0.00 | 0.00 | 0.00 | 88 | 1016.1 |
| 20260905065301 | 43 | 90 | 2.0 | 4.0 | 0.00 | 0.00 | 0.00 | 88 | 1016.2 |
| 20260905064751 | 43 | 68 | 2.0 | 4.0 | 0.00 | 0.00 | 0.00 | 88 | 1016.1 |
| 20260905064240 | 43 | 45 | 2.0 | 7.0 | 0.00 | 0.00 | 0.00 | 88 | 1016.2 |
| 20260905063730 | 43 | 90 | 3.0 | 7.0 | 0.00 | 0.00 | 0.00 | 88 | 1016.2 |
| 20260905063222 | 43 | 270 | 1.0 | 6.0 | 0.00 | 0.00 | 0.00 | 87 | 1016.2 |
| 20260905062710 | 43 | 90 | 2.0 | 4.0 | 0.00 | 0.00 | 0.00 | 87 | 1016.1 |
| 20260905062200 | 44 | 315 | 2.0 | 4.0 | 0.00 | 0.00 | 0.00 | 87 | 1016.3 |
| 20260905061139 | 44 | 23 | 2.0 | 6.0 | 0.00 | 0.00 | 0.00 | 87 | 1016.2 |
| 20260905060120 | 44 | 45 | 2.0 | 8.0 | 0.00 | 0.00 | 0.00 | 88 | 1016.3 |
| 20260905054549 | 44 | 0 | 2.0 | 6.0 | 0.00 | 0.00 | 0.00 | 89 | 1016.3 |
| 20260905054039 | 44 | 0 | 2.0 | 4.0 | 0.00 | 0.00 | 0.00 | 89 | 1016.2 |
| 20260905053229 | 44 | 338 | 2.0 | 4.0 | 0.00 | 0.00 | 0.00 | 89 | 1016.2 |
| 20260905052508 | 44 | 68 | 1.0 | 4.0 | 0.00 | 0.05 | 0.00 | 89 | 1016.1 |
| 20260905051958 | 44 | 23 | 1.0 | 4.0 | 0.00 | 0.05 | 0.00 | 88 | 1016.2 |
| 20260905050938 | 45 | 68 | 2.0 | 4.0 | 0.00 | 0.05 | 0.00 | 87 | 1016.1 |
| 20260905050427 | 45 | 23 | 2.0 | 6.0 | 0.00 | 0.05 | 0.00 | 87 | 1016.1 |
| 20260905045917 | 45 | 68 | 2.0 | 6.0 | 0.00 | 0.05 | 0.00 | 87 | 1016.2 |
| 20260905045407 | 45 | 68 | 1.0 | 4.0 | 0.00 | 0.05 | 0.00 | 87 | 1016.2 |
| 20260905044857 | 45 | 338 | 2.0 | 6.0 | 0.00 | 0.05 | 0.00 | 87 | 1016.3 |
| 20260905043836 | 45 | 23 | 2.0 | 4.0 | 0.00 | 0.05 | 0.00 | 88 | 1016.4 |
| 20260905043327 | 45 | 225 | 2.0 | 4.0 | 0.00 | 0.05 | 0.00 | 88 | 1016.4 |
| 20260905042816 | 44 | 23 | 1.0 | 4.0 | 0.00 | 0.05 | 0.00 | 88 | 1016.3 |
| 20260905042307 | 44 | 338 | 1.0 | 4.0 | 0.00 | 0.05 | 0.00 | 88 | 1016.1 |
| 20260905041246 | 45 | 45 | 0.0 | 2.0 | 0.00 | 0.05 | 0.00 | 87 | 1016.3 |
| 20260905040736 | 45 | 0 | 0.0 | 2.0 | 0.00 | 0.05 | 0.00 | 86 | 1016.0 |
| 20260905040226 | 45 | 45 | 0.0 | 2.0 | 0.00 | 0.05 | 0.00 | 86 | 1016.0 |
| 20260905035715 | 45 | 90 | 1.0 | 4.0 | 0.00 | 0.05 | 0.00 | 86 | 1016.0 |
| 20260905034655 | 45 | 0 | 2.0 | 4.0 | 0.00 | 0.05 | 0.00 | 86 | 1016.0 |
| 20260905034145 | 46 | 45 | 2.0 | 2.0 | 0.00 | 0.05 | 0.00 | 86 | 1015.9 |
| 20260905033635 | 46 | 23 | 0.0 | 2.0 | 0.00 | 0.05 | 0.00 | 85 | 1016.1 |
| 20260905033126 | 46 | 45 | 0.0 | 2.0 | 0.00 | 0.05 | 0.00 | 85 | 1016.1 |
| 20260905032105 | 46 | 68 | 1.0 | 2.0 | 0.00 | 0.05 | 0.00 | 84 | 1016.0 |
| 20260905031554 | 46 | 45 | 0.0 | 2.0 | 0.00 | 0.05 | 0.00 | 84 | 1016.0 |
| 20260905031045 | 46 | 90 | 1.0 | 4.0 | 0.00 | 0.05 | 0.00 | 84 | 1015.7 |
| 20260905030534 | 46 | 68 | 0.0 | 4.0 | 0.00 | 0.05 | 0.00 | 83 | 1015.9 |
| 20260905030025 | 47 | 45 | 1.0 | 4.0 | 0.00 | 0.05 | 0.00 | 83 | 1015.9 |
| 20260905025514 | 47 | 90 | 1.0 | 2.0 | 0.00 | 0.05 | 0.06 | 82 | 1015.8 |
| 20260905025025 | 47 | 23 | 0.0 | 2.0 | 0.00 | 0.05 | 0.06 | 82 | 1016.0 |
| 20260905024455 | 47 | 45 | 2.0 | 2.0 | 0.00 | 0.05 | 0.06 | 81 | 1015.8 |
| 20260905023943 | 47 | 315 | 0.0 | 4.0 | 0.00 | 0.05 | 0.06 | 81 | 1015.9 |
| 20260905023433 | 47 | 45 | 1.0 | 4.0 | 0.00 | 0.05 | 0.06 | 81 | 1015.5 |
| 20260905022923 | 47 | 45 | 0.0 | 4.0 | 0.00 | 0.05 | 0.06 | 81 | 1015.8 |
| 20260905022413 | 47 | 45 | 1.0 | 2.0 | 0.00 | 0.05 | 0.06 | 82 | 1015.8 |
| 20260905021903 | 48 | 90 | 0.0 | 2.0 | 0.00 | 0.05 | 0.06 | 82 | 1015.7 |
| 20260905021353 | 48 | 68 | 1.0 | 2.0 | 0.00 | 0.05 | 0.06 | 82 | 1015.6 |
| 20260905020332 | 48 | 23 | 1.0 | 2.0 | 0.00 | 0.05 | 0.06 | 83 | 1015.9 |
| 20260905015823 | 48 | 23 | 1.0 | 2.0 | 0.00 | 0.05 | 0.06 | 84 | 1015.8 |
| 20260905015313 | 48 | 90 | 0.0 | 2.0 | 0.01 | 0.05 | 0.06 | 84 | 1015.6 |
| 20260905014252 | 48 | 0 | 0.0 | 2.0 | 0.01 | 0.05 | 0.06 | 85 | 1015.4 |
| 20260905013741 | 48 | 45 | 0.0 | 2.0 | 0.01 | 0.05 | 0.06 | 84 | 1015.3 |
| 20260905012211 | 48 | 68 | 0.0 | 2.0 | 0.01 | 0.05 | 0.06 | 84 | 1015.3 |
| 20260905011702 | 49 | 23 | 0.0 | 2.0 | 0.01 | 0.05 | 0.06 | 83 | 1015.0 |
| 20260905011151 | 49 | 45 | 0.0 | 2.0 | 0.01 | 0.05 | 0.06 | 83 | 1015.1 |
| 20260905010641 | 49 | 68 | 0.0 | 2.0 | 0.01 | 0.05 | 0.06 | 83 | 1014.9 |
| 20260905005621 | 49 | 68 | 1.0 | 2.0 | 0.01 | 0.05 | 0.06 | 83 | 1015.0 |
| 20260905005111 | 49 | 203 | 1.0 | 2.0 | 0.00 | 0.04 | 0.05 | 82 | 1014.7 |
| 20260905004601 | 49 | 23 | 1.0 | 2.0 | 0.01 | 0.04 | 0.05 | 82 | 1015.5 |
| 20260905004050 | 49 | 135 | 0.0 | 2.0 | 0.01 | 0.04 | 0.05 | 83 | 1015.2 |
| 20260905003540 | 49 | 68 | 0.0 | 2.0 | 0.02 | 0.04 | 0.05 | 83 | 1014.9 |
| 20260905003030 | 49 | 248 | 1.0 | 2.0 | 0.02 | 0.04 | 0.05 | 83 | 1014.9 |
| 20260905002010 | 50 | 180 | 1.0 | 4.0 | 0.04 | 0.04 | 0.05 | 83 | 1014.8 |
| 20260905001459 | 50 | 203 | 1.0 | 2.0 | 0.04 | 0.04 | 0.05 | 83 | 1014.8 |
| 20260905000950 | 50 | 180 | 1.0 | 2.0 | 0.04 | 0.04 | 0.05 | 82 | 1014.8 |
| 20260905000439 | 51 | 68 | 1.0 | 4.0 | 0.04 | 0.04 | 0.05 | 82 | 1014.7 |
| 20260904235929 | 51 | 45 | 1.0 | 4.0 | 0.04 | 0.04 | 0.05 | 81 | 1014.6 |
| 20260904235420 | 51 | 68 | 1.0 | 4.0 | 0.04 | 0.04 | 0.05 | 79 | 1014.6 |
| 20260904234909 | 52 | 113 | 1.0 | 6.0 | 0.04 | 0.04 | 0.05 | 77 | 1014.4 |
| 20260904234359 | 52 | 180 | 2.0 | 6.0 | 0.02 | 0.02 | 0.04 | 77 | 1014.4 |
| 20260904233849 | 52 | 180 | 1.0 | 6.0 | 0.02 | 0.02 | 0.04 | 76 | 1014.1 |
| 20260904233338 | 53 | 45 | 2.0 | 6.0 | 0.01 | 0.01 | 0.02 | 75 | 1013.8 |
| 20260904231808 | 53 | 45 | 2.0 | 6.0 | 0.00 | 0.00 | 0.01 | 67 | 1013.6 |
| 20260904231258 | 53 | 180 | 2.0 | 6.0 | 0.00 | 0.00 | 0.01 | 69 | 1013.3 |
| 20260904230753 | 54 | 45 | 2.0 | 6.0 | 0.00 | 0.00 | 0.01 | 67 | 1012.9 |
| 20260904225728 | 54 | 90 | 3.0 | 6.0 | 0.00 | 0.00 | 0.01 | 63 | 1012.6 |
| 20260904225217 | 54 | 68 | 2.0 | 7.0 | 0.00 | 0.00 | 0.01 | 63 | 1012.6 |
| 20260904224709 | 54 | 23 | 2.0 | 7.0 | 0.00 | 0.00 | 0.01 | 63 | 1012.7 |
| 20260904224157 | 54 | 68 | 2.0 | 6.0 | 0.00 | 0.00 | 0.01 | 64 | 1012.6 |
| 20260904223646 | 54 | 23 | 3.0 | 6.0 | 0.00 | 0.00 | 0.01 | 64 | 1012.6 |
| 20260904223137 | 54 | 23 | 2.0 | 4.0 | 0.00 | 0.00 | 0.01 | 65 | 1012.7 |
| 20260904222626 | 54 | 45 | 1.0 | 4.0 | 0.00 | 0.00 | 0.01 | 66 | 1012.7 |
| 20260904221607 | 53 | 68 | 2.0 | 4.0 | 0.00 | 0.00 | 0.01 | 68 | 1012.6 |
| 20260904221056 | 53 | 45 | 2.0 | 4.0 | 0.00 | 0.00 | 0.01 | 69 | 1012.7 |
| 20260904220548 | 53 | 113 | 2.0 | 4.0 | 0.00 | 0.00 | 0.01 | 69 | 1012.7 |
| 20260904215525 | 53 | 338 | 2.0 | 4.0 | 0.00 | 0.00 | 0.01 | 68 | 1012.9 |
| 20260904214505 | 54 | 45 | 2.0 | 4.0 | 0.00 | 0.00 | 0.01 | 69 | 1012.9 |
| 20260904213955 | 54 | 68 | 2.0 | 4.0 | 0.00 | 0.00 | 0.01 | 69 | 1012.9 |
| 20260904212935 | 55 | 315 | 0.0 | 8.0 | 0.00 | 0.00 | 0.01 | 69 | 1012.9 |
| 20260904212427 | 55 | 23 | 4.0 | 8.0 | 0.00 | 0.00 | 0.01 | 69 | 1012.8 |
| 20260904211914 | 55 | 68 | 0.0 | 4.0 | 0.00 | 0.00 | 0.01 | 67 | 1013.0 |
| 20260904211404 | 56 | 23 | 1.0 | 4.0 | 0.00 | 0.00 | 0.01 | 66 | 1013.0 |
| 20260904210344 | 56 | 113 | 2.0 | 4.0 | 0.00 | 0.00 | 0.01 | 64 | 1012.9 |
| 20260904205833 | 57 | 68 | 2.0 | 4.0 | 0.00 | 0.00 | 0.01 | 62 | 1012.8 |
| 20260904205323 | 57 | 90 | 2.0 | 4.0 | 0.00 | 0.00 | 0.01 | 61 | 1012.8 |
| 20260904204814 | 57 | 90 | 2.0 | 6.0 | 0.00 | 0.00 | 0.01 | 60 | 1012.9 |
| 20260904204303 | 58 | 113 | 2.0 | 8.0 | 0.00 | 0.00 | 0.01 | 59 | 1012.8 |
| 20260904203754 | 59 | 45 | 4.0 | 8.0 | 0.00 | 0.00 | 0.01 | 49 | 1013.0 |
| 20260904203243 | 59 | 45 | 4.0 | 8.0 | 0.00 | 0.00 | 0.01 | 48 | 1012.9 |
| 20260904202733 | 60 | 68 | 2.0 | 7.0 | 0.00 | 0.00 | 0.01 | 47 | 1012.8 |
| 20260904202223 | 60 | 68 | 4.0 | 7.0 | 0.00 | 0.00 | 0.01 | 45 | 1013.0 |
| 20260904201202 | 59 | 90 | 3.0 | 9.0 | 0.00 | 0.00 | 0.01 | 46 | 1013.1 |
| 20260904200654 | 59 | 135 | 2.0 | 11.0 | 0.00 | 0.00 | 0.01 | 46 | 1012.9 |
| 20260904200142 | 59 | 68 | 4.0 | 11.0 | 0.00 | 0.00 | 0.01 | 44 | 1013.0 |
| 20260904195632 | 60 | 0 | 8.0 | 11.0 | 0.00 | 0.00 | 0.01 | 43 | 1013.0 |
| 20260904195122 | 60 | 45 | 2.0 | 9.0 | 0.00 | 0.00 | 0.01 | 42 | 1013.0 |
| 20260904194613 | 59 | 68 | 2.0 | 9.0 | 0.00 | 0.00 | 0.01 | 42 | 1013.0 |
| 20260904194101 | 60 | 23 | 3.0 | 9.0 | 0.00 | 0.00 | 0.01 | 42 | 1013.1 |